Location: Maccacari
(45.1333°N, 11.1333°E)
Time: 15:04:05
(UTC+00:00)

Transit 2A - Visible Passes

Search period start: 23 January 2021 00:00
Search period end: 02 February 2021 00:00
Orbit: 598 x 960 km, 66.7° (Epoch: 22 January)

Date Brightness Start Highest point End Pass type
(mag) Time Alt. Az. Time Alt. Az. Time Alt. Az.
23 Jan 8.1 03:10:22 23° NE 03:10:22 23° NE 03:12:21 10° NE visible
23 Jan 7.0 04:50:53 28° NW 04:50:53 28° NW 04:55:05 10° NNE visible
24 Jan 8.8 02:37:33 12° NE 02:37:33 12° NE 02:38:01 10° NE visible
24 Jan 7.2 04:18:04 29° N 04:18:04 29° N 04:21:07 10° NNE visible
24 Jan 8.0 06:00:06 10° NW 06:00:51 10° NNW 06:01:35 10° NNW visible
25 Jan 7.8 03:45:08 23° NNE 03:45:08 23° NNE 03:47:05 10° NNE visible
25 Jan 7.9 05:25:38 13° NW 05:26:16 13° NNW 05:28:37 10° N visible
26 Jan 8.4 03:12:07 15° NNE 03:12:07 15° NNE 03:12:59 10° NNE visible
26 Jan 7.8 04:52:37 16° NNW 04:52:37 16° NNW 04:54:58 10° N visible
27 Jan 7.9 04:19:32 16° N 04:19:32 16° N 04:21:10 10° N visible
28 Jan 8.3 03:46:25 14° N 03:46:25 14° N 03:47:16 10° NNE visible
29 Jan 8.7 03:13:14 10° NNE 03:13:14 10° NNE 03:13:18 10° NNE visible
30 Jan 8.3 04:20:30 10° N 04:20:30 10° N 04:20:37 10° N visible
